Location: Brno
(49.2000°N, 16.6330°E)
Time: 20:51:14
(UTC+02:00)

BREEZE M DEB (TANK) - Visible Passes

Search period start: 02 September 2014 00:00
Search period end: 12 September 2014 00:00
Orbit: 303 x 12202 km, 49.5° (Epoch: 31 August)

Date Brightness Start Highest point End Pass type
(mag) Time Alt. Az. Time Alt. Az. Time Alt. Az.
02 Sep 3.5 03:48:23 25° SE 03:48:23 25° SE 03:50:05 10° E visible
03 Sep 4.4 03:21:15 15° ESE 03:21:15 15° ESE 03:21:54 10° E visible
07 Sep 1.2 05:28:00 12° W 05:30:30 85° N 05:32:41 10° E visible
08 Sep 1.2 05:00:47 25° WSW 05:02:14 86° SSE 05:04:23 10° E visible
09 Sep 1.4 04:33:32 58° SW 04:33:57 75° SSE 04:36:08 10° E visible
10 Sep 2.5 04:06:17 44° ESE 04:06:17 44° ESE 04:07:55 10° E visible
11 Sep 4.1 03:39:01 18° E 03:39:01 18° E 03:39:42 10° E visible
